• în Republica Moldova
  • Lista ţărilor
  • Pe 7 zile
  • Temperatura apei
  • Hartă satelitară
  • Meteo pe hartă
  • Widget-uri
  • user-avatar
    Intrare

    Meteo pe oră la Berezovaya Roscha

    Astăzi, 21 Aprilie, Sâmbătă

    Timp Temperatura Precipitaţii Vânt Presiune Umiditate
    00:00 +9°C° 0 mm 3 m/s 750 mmHg 73%
    01:00 +9°C° 0 mm 3 m/s 749 mmHg 75%
    02:00 +8°C° 0 mm 3 m/s 749 mmHg 77%
    03:00 +8°C° 0 mm 3 m/s 748 mmHg 77%
    04:00 +8°C° 0 mm 3 m/s 747 mmHg 78%
    05:00 +7°C° 0 mm 4 m/s 747 mmHg 78%
    06:00 +8°C° 0 mm 4 m/s 746 mmHg 73%
    07:00 +10°C° 0 mm 5 m/s 745 mmHg 67%
    08:00 +13°C° 0 mm 6 m/s 744 mmHg 59%
    09:00 +15°C° 0 mm 7 m/s 743 mmHg 55%
    10:00 +17°C° 0 mm 7 m/s 743 mmHg 52%
    11:00 +18°C° 0 mm 8 m/s 742 mmHg 48%
    12:00 +21°C° 0 mm 8 m/s 741 mmHg 46%
    13:00 +22°C° 0 mm 9 m/s 740 mmHg 44%
    14:00 +23°C° 0 mm 9 m/s 739 mmHg 42%
    15:00 +22°C° 0 mm 9 m/s 739 mmHg 43%
    16:00 +21°C° 0 mm 8 m/s 738 mmHg 44%
    17:00 +20°C° 0 mm 8 m/s 738 mmHg 45%
    18:00 +18°C° 0 mm 7 m/s 739 mmHg 46%
    19:00 +16°C° 0 mm 7 m/s 740 mmHg 48%
    20:00 +14°C° 0 mm 7 m/s 740 mmHg 49%
    21:00 +11°C° 0 mm 6 m/s 741 mmHg 49%
    22:00 +10°C° 0 mm 6 m/s 742 mmHg 50%
    23:00 +9°C° 0 mm 6 m/s 742 mmHg 51%

    Mâine, 22 Aprilie, Duminică

    Timp Temperatura Precipitaţii Vânt Presiune Umiditate
    00:00 +8°C° 0 mm 6 m/s 742 mmHg 53%
    01:00 +7°C° 0 mm 5 m/s 743 mmHg 56%
    02:00 +6°C° 0 mm 5 m/s 743 mmHg 58%
    03:00 +6°C° 0 mm 5 m/s 743 mmHg 60%
    04:00 +6°C° 0 mm 5 m/s 743 mmHg 62%
    05:00 +5°C° 0 mm 5 m/s 743 mmHg 64%
    06:00 +7°C° 0 mm 6 m/s 744 mmHg 61%
    07:00 +8°C° 0 mm 7 m/s 744 mmHg 58%
    08:00 +9°C° 0 mm 8 m/s 744 mmHg 55%
    09:00 +10°C° 0 mm 8 m/s 744 mmHg 51%
    10:00 +11°C° 0 mm 8 m/s 744 mmHg 47%
    11:00 +12°C° 0 mm 8 m/s 744 mmHg 43%
    12:00 +12°C° 0,1 mm 8 m/s 744 mmHg 43%
    13:00 +12°C° 0,1 mm 8 m/s 744 mmHg 43%
    14:00 +12°C° 0,1 mm 7 m/s 744 mmHg 43%
    15:00 +12°C° 0,1 mm 7 m/s 744 mmHg 44%
    16:00 +12°C° 0,1 mm 7 m/s 744 mmHg 44%
    17:00 +13°C° 0,1 mm 6 m/s 744 mmHg 44%
    18:00 +12°C° 0 mm 5 m/s 744 mmHg 49%
    19:00 +11°C° 0 mm 4 m/s 744 mmHg 54%
    20:00 +9°C° 0 mm 3 m/s 745 mmHg 59%
    21:00 +9°C° 0 mm 3 m/s 745 mmHg 63%
    22:00 +8°C° 0 mm 3 m/s 745 mmHg 67%
    23:00 +7°C° 0 mm 3 m/s 745 mmHg 71%

    Poimâine, 23 Aprilie, Luni

    Timp Temperatura Precipitaţii Vânt Presiune Umiditate
    00:00 +5°C° 0 mm 3 m/s 746 mmHg 75%
    01:00 +6°C° 0 mm 2 m/s 746 mmHg 79%
    02:00 +5°C° 0 mm 2 m/s 746 mmHg 83%
    03:00 +5°C° 0 mm 2 m/s 747 mmHg 86%
    04:00 +4°C° 0 mm 2 m/s 747 mmHg 88%
    05:00 +4°C° 0 mm 2 m/s 747 mmHg 90%
    06:00 +5°C° 0 mm 2 m/s 748 mmHg 80%
    07:00 +5°C° 0 mm 3 m/s 748 mmHg 69%
    08:00 +7°C° 0 mm 3 m/s 749 mmHg 59%
    09:00 +8°C° 0 mm 3 m/s 749 mmHg 54%
    10:00 +9°C° 0 mm 3 m/s 749 mmHg 49%
    11:00 +10°C° 0 mm 3 m/s 749 mmHg 44%
    12:00 +11°C° 0 mm 3 m/s 749 mmHg 42%
    13:00 +11°C° 0 mm 3 m/s 749 mmHg 40%
    14:00 +13°C° 0 mm 2 m/s 749 mmHg 37%
    15:00 +13°C° 0 mm 2 m/s 749 mmHg 38%
    16:00 +13°C° 0 mm 2 m/s 748 mmHg 38%
    17:00 +13°C° 0 mm 2 m/s 748 mmHg 38%
    18:00 +10°C° 0 mm 2 m/s 748 mmHg 43%
    19:00 +9°C° 0 mm 2 m/s 748 mmHg 47%
    20:00 +7°C° 0 mm 2 m/s 748 mmHg 52%
    21:00 +6°C° 0 mm 2 m/s 748 mmHg 53%
    22:00 +6°C° 0 mm 2 m/s 748 mmHg 54%
    23:00 +4°C° 0 mm 3 m/s 748 mmHg 55%

    24 Aprilie, Marţi

    Timp Temperatura Precipitaţii Vânt Presiune Umiditate
    00:00 +4°C° 0 mm 3 m/s 748 mmHg 56%
    01:00 +4°C° 0 mm 3 m/s 748 mmHg 57%
    02:00 +3°C° 0 mm 3 m/s 748 mmHg 58%
    03:00 +3°C° 0 mm 3 m/s 748 mmHg 58%
    04:00 +4°C° 0 mm 3 m/s 747 mmHg 58%
    05:00 +4°C° 0 mm 4 m/s 747 mmHg 57%
    06:00 +5°C° 0,2 mm 4 m/s 747 mmHg 60%
    07:00 +5°C° 0,2 mm 4 m/s 746 mmHg 62%
    08:00 +6°C° 0,2 mm 4 m/s 746 mmHg 64%
    09:00 +6°C° 0,9 mm 4 m/s 746 mmHg 70%
    10:00 +6°C° 0,9 mm 4 m/s 746 mmHg 76%
    11:00 +6°C° 0,9 mm 4 m/s 746 mmHg 82%
    12:00 +7°C° 0,3 mm 4 m/s 746 mmHg 82%
    13:00 +7°C° 0,3 mm 4 m/s 746 mmHg 82%
    14:00 +8°C° 0,3 mm 4 m/s 746 mmHg 82%
    15:00 +9°C° 0,1 mm 3 m/s 746 mmHg 83%
    16:00 +9°C° 0,1 mm 3 m/s 745 mmHg 84%
    17:00 +9°C° 0,1 mm 2 m/s 745 mmHg 86%
    18:00 +9°C° 0 mm 2 m/s 745 mmHg 89%
    19:00 +8°C° 0 mm 2 m/s 745 mmHg 91%
    20:00 +8°C° 0 mm 2 m/s 746 mmHg 94%
    21:00 +7°C° 0 mm 2 m/s 746 mmHg 94%
    22:00 +7°C° 0 mm 2 m/s 745 mmHg 95%
    23:00 +7°C° 0 mm 2 m/s 745 mmHg 95%

    25 Aprilie, Miercuri

    Timp Temperatura Precipitaţii Vânt Presiune Umiditate
    00:00 +7°C° 0 mm 2 m/s 745 mmHg 94%
    01:00 +7°C° 0 mm 2 m/s 745 mmHg 93%
    02:00 +7°C° 0 mm 2 m/s 745 mmHg 92%
    03:00 +7°C° 0,1 mm 3 m/s 745 mmHg 92%
    04:00 +7°C° 0,1 mm 3 m/s 745 mmHg 91%
    05:00 +7°C° 0,1 mm 3 m/s 744 mmHg 91%
    06:00 +7°C° 0,3 mm 4 m/s 744 mmHg 90%
    07:00 +8°C° 0,3 mm 5 m/s 744 mmHg 88%
    08:00 +9°C° 0,3 mm 6 m/s 744 mmHg 87%
    09:00 +10°C° 0,2 mm 6 m/s 744 mmHg 83%
    10:00 +11°C° 0,2 mm 6 m/s 744 mmHg 79%
    11:00 +11°C° 0,2 mm 7 m/s 744 mmHg 75%
    12:00 +12°C° 0,1 mm 7 m/s 744 mmHg 69%
    13:00 +14°C° 0,1 mm 7 m/s 744 mmHg 63%
    14:00 +15°C° 0,1 mm 8 m/s 744 mmHg 57%
    15:00 +15°C° 0 mm 7 m/s 744 mmHg 55%
    16:00 +14°C° 0 mm 6 m/s 744 mmHg 53%
    17:00 +14°C° 0 mm 6 m/s 744 mmHg 51%
    18:00 +13°C° 0 mm 5 m/s 745 mmHg 56%
    19:00 +11°C° 0 mm 4 m/s 745 mmHg 61%
    20:00 +9°C° 0 mm 3 m/s 745 mmHg 66%
    21:00 +9°C° 0 mm 3 m/s 745 mmHg 68%
    22:00 +8°C° 0 mm 3 m/s 746 mmHg 71%
    23:00 +7°C° 0 mm 3 m/s 746 mmHg 73%

    26 Aprilie, Joi

    Timp Temperatura Precipitaţii Vânt Presiune Umiditate
    00:00 +7°C° 0 mm 2 m/s 746 mmHg 75%
    01:00 +6°C° 0 mm 2 m/s 746 mmHg 77%
    02:00 +6°C° 0 mm 2 m/s 746 mmHg 78%
    03:00 +6°C° 0 mm 2 m/s 746 mmHg 79%
    04:00 +6°C° 0 mm 2 m/s 746 mmHg 80%
    05:00 +6°C° 0 mm 2 m/s 746 mmHg 81%
    06:00 +8°C° 0 mm 3 m/s 745 mmHg 79%
    07:00 +8°C° 0 mm 4 m/s 744 mmHg 76%
    08:00 +10°C° 0 mm 5 m/s 744 mmHg 73%
    09:00 +14°C° 0,1 mm 5 m/s 743 mmHg 70%
    10:00 +16°C° 0,1 mm 6 m/s 742 mmHg 68%
    11:00 +18°C° 0,1 mm 7 m/s 742 mmHg 65%
    12:00 +21°C° 0,2 mm 7 m/s 741 mmHg 63%
    13:00 +22°C° 0,2 mm 7 m/s 741 mmHg 60%
    14:00 +23°C° 0,2 mm 8 m/s 740 mmHg 57%
    15:00 +23°C° 0,3 mm 7 m/s 741 mmHg 59%
    16:00 +22°C° 0,3 mm 6 m/s 741 mmHg 60%
    17:00 +22°C° 0,3 mm 5 m/s 741 mmHg 62%
    18:00 +20°C° 0 mm 4 m/s 741 mmHg 68%
    19:00 +18°C° 0 mm 3 m/s 742 mmHg 73%
    20:00 +16°C° 0 mm 3 m/s 742 mmHg 78%
    21:00 +16°C° 0 mm 3 m/s 743 mmHg 79%
    22:00 +15°C° 0 mm 2 m/s 743 mmHg 80%
    23:00 +14°C° 0 mm 2 m/s 743 mmHg 80%
    Arată mai mult